User: anonymous   Login
Location: Unspecified
(0.0000°N, 0.0000°E)
Time: 10:51:15
(UTC+00:00)
Language:

Tubsat - Orbit

View from above orbital plane
View from above orbital plane
View from above satellite
View from above satellite

Ground track
Ground track

The orbit data is extracted from the following two-line orbital elements,

1 25757U 99029B   21017.07353213  .00000003  00000-0  12366-4 0  9995
2 25757  98.4421 311.2266 0013254 254.6722 105.3008 14.51433693146478
Epoch (UTC): 17 January 2021 01:45:53
Eccentricity: 0.0013254
inclination: 98.4421°
perigee height: 711 km
apogee height: 730 km
right ascension of ascending node: 311.2266°
argument of perigee: 254.6722°
revolutions per day: 14.51433693
mean anomaly at epoch: 105.3008°
orbit number at epoch: 14647

The dashed part of the orbit path shows where the satellite is in the earth's shadow,  

DLR